Regional Weather Roundup
Issued by NWS

Home | Current Version | Previous Version | Graphics & Text | Print | Product List | Glossary On
Versions: 1 2 3 4 5 6 7 8 9 10 11 12 13 14 15 16 17 18 19 20 21 22 23 24 25 26 27 28 29 30 31 32 33 34 35 36 37 38 39 40 41 42 43 44 45 46 47 48 49 50
000
ASUS43 KMPX 081310
RWRMN
WEATHER ROUNDUP FOR MINNESOTA
NATIONAL WEATHER SERVICE TWIN CITIES/CHANHASSEN MN
700 AM CST THU DEC 08 2016


NOTE: "FAIR" INDICATES FEW OR NO CLOUDS BELOW 12,000 FEET WITH NO
SIGNIFICANT WEATHER AND/OR OBSTRUCTIONS TO VISIBILITY. N/A MEANS
CURRENT SKY AND/OR WEATHER CONDITIONS ARE NOT AVAILABLE.

MNZ060>063-068>070-081400-
   Twin Cities Metro

CITY           SKY/WX    TMP DP  RH WIND       PRES   REMARKS
TWIN CITIES    PTCLDY    18  12  77 W13       30.25R WCI   5
ST PAUL        PTCLDY    19  14  81 NW12      30.26R WCI   7
CRYSTAL        CLEAR     19  11  70 W12       30.24R WCI   7
BLAINE         PTCLDY    19  16  86 W10       30.23R WCI   8
LAKEVILLE      CLOUDY    16  12  86 W13       30.25R WCI   2
EDEN PRAIRIE   MOCLDY    18  12  77 W13       30.26R WCI   5
SOUTH ST PAUL  PTCLDY    19  14  80 W9        30.25R WCI   8
LAKE ELMO      FAIR      19  16  86 W12       30.23R WCI   7
$$
MNZ001>005-007-008-013>017-022>024-027-028-081400-
   Northwest Minnesota

CITY           SKY/WX    TMP DP  RH WIND       PRES   REMARKS
BEMIDJI        LGT SNOW  16  13  86 NW10      30.26R WCI   4
HALLOCK        CLOUDY    16  12  86 NW22      30.39R WCI  -2
ROSEAU         FLURRIES  18  12  79 NW10      30.32R WCI   6
WARROAD        FLURRIES  16  12  86 NW13      30.31R WCI   2
THIEF RVR FALL LGT SNOW  14  11  87 NW20      30.35R FOG     WCI  -3
CROOKSTON      LGT SNOW  16  12  86 NW23      30.40R WCI  -2
FOSSTON        LGT SNOW  12  10  92 NW15G21   30.33R WCI  -4
DETROIT LAKES  LGT SNOW  16  14  93 NW22G29   30.33R WCI  -2
MOORHEAD       MIX PCPN  16  10  79 NW20      30.41R WCI  -1
PARK RAPIDS    LGT SNOW  17  11  77 NW14      30.26R WCI   3
$$
MNZ006-009>011-018-025>026-081400-
   North Central Minnesota

CITY           SKY/WX    TMP DP  RH WIND       PRES   REMARKS
BAUDETTE       LGT SNOW  20  15  81 N12       30.25R WCI   8
FLAG ISLAND    CLOUDY    19  16  86 N20       30.29R WCI   4
INTL FALLS     LGT SNOW  18  15  88 NW7       30.20R FOG     WCI   9
WASKISH        FLURRIES  18  16  93 NW13G18   30.25R WCI   4
BIG FORK       LGT SNOW  18  16  93 NW5       30.20R WCI  11
LONGVILLE      LGT SNOW  19  16  86 NW8G17    30.23R WCI   9
GRAND RAPIDS   LGT SNOW  17  13  84 NW12      30.21R FOG     WCI   4
CRANE LAKE     LGT SNOW  19  18  93 NW7       30.17R WCI  10
ORR            FLURRIES  18  14  86 NW8       30.14R WCI   7
COOK           FLURRIES  18  16  93 NW7       30.15R WCI   8
$$
MNZ012-019>021-037-081400-
   Northeast Minnesota

CITY           SKY/WX    TMP DP  RH WIND       PRES   REMARKS
DULUTH         FLURRIES  20  15  81 NW15G22   30.11R WCI   6
ELY            CLOUDY    18  16  93 NW9G16    30.10R WCI   6
HIBBING        LGT SNOW  17  13  84 NW16      30.15R FOG     WCI   2
EVELETH        LGT SNOW  20  15  82 NW10      30.14R WCI   9
DULUTH HARBOR  CLOUDY    25  18  74 NW16G23   30.17R WCI  12
TWO HARBORS    PTCLDY    25  18  74 NW12G17   30.09R WCI  14
SILVER BAY     PTCLDY    21  18  86 NW9       30.07R WCI  11
GRAND MARAIS     N/A     25  16  68 NW16G24   30.05R WCI  12
G MARAIS ARPRT FLURRIES  16  10  79 NW13G20   29.99R WCI   2
$$
MNZ029>031-032-039>041-046>048-054>057-064-081400-
   West Central Minnesota

CITY           SKY/WX    TMP DP  RH WIND       PRES   REMARKS
FERGUS FALLS   LGT SNOW  14  10  85 NW23      30.42R WCI  -5
WHEATON        LGT SNOW  12  10  92 NW20G26   30.44R WCI  -6
MORRIS         LGT SNOW  12   9  85 NW23G31   30.37R WCI  -7
ALEXANDRIA     CLOUDY    16  12  84 NW15      30.31R WCI   1
ELBOW LAKE     LGT SNOW  13  10  90 NW20      30.37R WCI  -5
WADENA         FLURRIES  16  10  79 NW14G21   30.28R WCI   1
GLENWOOD       LGT SNOW  14  10  85 NW21      30.31R WCI  -4
APPLETON       CLOUDY    12   9  85 NW22G28   30.40R WCI  -7
BENSON         FLURRIES  12   9  85 N22       30.36R WCI  -7
ORTONVILLE     CLOUDY    12   7  79 NW17G28   30.42R WCI  -5
MADISON        CLOUDY    16   9  73 NW18G24   30.42R WCI  -1
WILLMAR        LGT SNOW  16  12  86 NW17      30.34R WCI   0
$$
MNZ033>034-036-042>043-049>051-058-059-081400-
   Central Minnesota

CITY           SKY/WX    TMP DP  RH WIND       PRES   REMARKS
ST CLOUD       MOCLDY    19  14  81 NW15      30.26R WCI   5
PAYNESVILLE    FLURRIES  18  15  88 NW12G20   30.30R WCI   5
AITKIN         MIX PCPN  21  12  68 NW12      30.20R WCI   9
PINE RIVER     CLOUDY    18  12  79 NW8       30.27R WCI   7
BRAINERD       CLOUDY    18  12  77 NW13      30.24R WCI   5
STAPLES        FLURRIES  16  12  86 NW13      30.27R WCI   2
LONG PRAIRIE   FLURRIES  19  14  79 W15G21    30.28R WCI   5
LITTLE FALLS   MOCLDY    19  12  73 NW8       30.27R WCI   9
LITCHFIELD     PTCLDY    18  12  79 NW14      30.30R WCI   4
BUFFALO        PTCLDY    18  14  83 W10       30.28R WCI   7
MAPLE LAKE     CLEAR     20  17  86 NW13G20   30.27R WCI   8
HUTCHINSON     CLOUDY    17  13  85 W14G24    30.31R WCI   3
$$
MNZ037-044-045-052-053-081400-
   East Central Minnesota

CITY           SKY/WX    TMP DP  RH WIND       PRES   REMARKS
PRINCETON      PTCLDY    19  14  79 NW12      30.23R WCI   7
MORA           LGT SNOW  21  18  86 NW9       30.22R WCI  11
CAMBRIDGE      FLURRIES  21  12  68 NW10      30.21R WCI  10
RUSH CITY      CLOUDY    21  18  86 W9        30.21R WCI  11
MOOSE LAKE     CLOUDY    21  16  79 NW14G20   30.16R WCI   8
HINCKLEY       CLOUDY    21  18  86 NW9       30.19R WCI  11
CLOQUET        LGT SNOW  19  16  86 NW10G18   30.14R WCI   8
MCGREGOR       CLOUDY    19  16  86 NW12G17   30.20R WCI   7
$$
MNZ071>073-080-081-089-090-097-098-081400-
   Southwest Minnesota

CITY           SKY/WX    TMP DP  RH WIND       PRES   REMARKS
MONTEVIDEO     FLURRIES  12  10  92 N15G23    30.40R WCI  -4
GRANITE FALLS  FLURRIES  15  11  82 W22G31    30.41R WCI  -2
CANBY          CLEAR     13   8  79 NW20      30.44R WCI  -5
MARSHALL       CLEAR     12   6  77 NW23G30   30.40R WCI  -7
REDWOOD FALLS  FLURRIES  16   9  74 NW14G26   30.36R WCI   2
OLIVIA         LGT SNOW  18  14  86 NW17G24   30.34R WCI   2
PIPESTONE      PTCLDY     9   3  78 NW16G23   30.39R WCI  -9
WINDOM         FLURRIES  12   9  85 W20G26    30.36R WCI  -6
WORTHINGTON    PTCLDY     8   4  83 NW25      30.38R WCI -13
JACKSON        CLOUDY    12   7  79 NW18G26   30.35R WCI  -5
TRACY          MOCLDY    13   8  81 NW20G25   30.39R WCI  -5
SLAYTON        FLURRIES   9   5  84 W20G25    30.37R WCI -10
$$
MNZ065>067-074>077-082>085-091>093-081400-
   South Central Minnesota

CITY           SKY/WX    TMP DP  RH WIND       PRES   REMARKS
MANKATO        FLURRIES  16  11  80 NW20G29   30.31R WCI  -1
NEW ULM        LGT SNOW  16  10  79 NW25G31   30.34R WCI  -3
ST JAMES       FLURRIES  14  10  85 W21G28    30.35R WCI  -4
FAIRMONT       FLURRIES  14   8  77 NW20G29   30.35R WCI  -3
GLENCOE        CLOUDY    17  15  90 W14       30.29R WCI   3
FARIBAULT      CLOUDY    16  12  86 W16G23    30.27R WCI   0
OWATONNA       FLURRIES  16  10  79 W17G24    30.27R WCI   0
WASECA         LGT SNOW  18  14  86 NW21      30.29R WCI   1
ALBERT LEA     LGT SNOW  18  14  86 W10G21    30.28R WCI   6
$$
MNZ078>079-086>088-094>096-081400-
   Southeast Minnesota

CITY           SKY/WX    TMP DP  RH WIND       PRES   REMARKS
ROCHESTER      CLOUDY    15  11  83 W20G26    30.22R WCI  -2
RED WING       FLURRIES  19  12  73 W9        30.23R WCI   9
STANTON        MOCLDY    17  13  82 W14       30.25R WCI   3
DODGE CENTER   LGT SNOW  14  10  85 W17       30.23R WCI  -3
WINONA         CLOUDY    19  14  79 NW9G16    30.24R WCI   9
AUSTIN         FLURRIES  12   9  85 W14G21    30.26R WCI  -3
PRESTON        LGT SNOW  14  10  83 NW17      30.23R WCI  -3
$$
ABBREVIATIONS USED IN REMARKS
   TC - TEMPERATURES IN CELSIUS
  WCI - WIND CHILL INDEX
   HX - HEAT INDEX
  VSB - VISIBILITY
$$



USA.gov is the U.S. government's official web portal to all federal, state and local government web resources and services.